TimeEDT,TemperatureF,Dew PointF,Humidity,Sea Level PressureIn,VisibilityMPH,Wind Direction,Wind SpeedMPH,Gust SpeedMPH,PrecipitationIn,Events,Conditions,WindDirDegrees,DateUTC
12:53 AM,69.1,62.1,78,30.17,10.0,SW,5.8,-,N/A,,Clear,230,2013-08-26 04:53:00
1:53 AM,66.9,62.1,84,30.14,10.0,SW,5.8,-,N/A,,Clear,230,2013-08-26 05:53:00
2:53 AM,64.0,60.1,87,30.13,10.0,WSW,4.6,-,N/A,,Clear,240,2013-08-26 06:53:00
3:53 AM,64.9,60.1,84,30.12,10.0,WSW,4.6,-,N/A,,Clear,240,2013-08-26 07:53:00
4:53 AM,62.1,60.1,93,30.13,8.0,SW,3.5,-,N/A,,Clear,220,2013-08-26 08:53:00
5:53 AM,62.1,60.1,93,30.13,8.0,Calm,Calm,-,N/A,,Clear,0,2013-08-26 09:53:00
6:53 AM,61.0,59.0,93,30.15,7.0,Calm,Calm,-,N/A,,Clear,0,2013-08-26 10:53:00
7:53 AM,63.0,61.0,93,30.16,4.0,Calm,Calm,-,N/A,,Clear,0,2013-08-26 11:53:00
8:53 AM,70.0,64.0,81,30.14,10.0,WSW,5.8,-,N/A,,Clear,240,2013-08-26 12:53:00
9:53 AM,77.0,63.0,62,30.12,10.0,West,12.7,-,N/A,,Clear,260,2013-08-26 13:53:00
10:53 AM,81.0,64.0,56,30.12,10.0,West,10.4,-,N/A,,Clear,260,2013-08-26 14:53:00
11:53 AM,82.9,64.9,54,30.11,10.0,West,11.5,19.6,N/A,,Clear,270,2013-08-26 15:53:00
12:53 PM,82.9,64.9,54,30.09,10.0,West,12.7,20.7,N/A,,Partly Cloudy,270,2013-08-26 16:53:00
1:53 PM,84.0,66.9,56,30.05,10.0,West,11.5,-,N/A,,Clear,260,2013-08-26 17:53:00
2:53 PM,87.1,69.1,55,30.03,10.0,West,16.1,-,N/A,,Clear,260,2013-08-26 18:53:00
3:53 PM,84.9,70.0,61,29.99,10.0,SW,10.4,-,N/A,,Clear,230,2013-08-26 19:53:00
4:53 PM,86.0,70.0,59,29.99,10.0,WSW,11.5,20.7,N/A,,Scattered Clouds,250,2013-08-26 20:53:00
5:53 PM,84.9,70.0,61,30.00,10.0,West,17.3,21.9,N/A,,Clear,260,2013-08-26 21:53:00
6:53 PM,82.9,70.0,65,30.00,10.0,West,11.5,-,N/A,,Clear,280,2013-08-26 22:53:00
7:53 PM,82.0,71.1,69,29.99,10.0,West,8.1,-,N/A,,Clear,260,2013-08-26 23:53:00
8:53 PM,77.0,71.1,82,30.00,9.0,Calm,Calm,-,N/A,,Clear,0,2013-08-27 00:53:00
9:53 PM,73.0,70.0,90,30.00,8.0,SW,4.6,-,N/A,,Scattered Clouds,220,2013-08-27 01:53:00
10:53 PM,75.0,71.1,87,29.99,7.0,Calm,Calm,-,0.00,,Scattered Clouds,0,2013-08-27 02:53:00
11:46 PM,69.8,69.8,100,30.01,1.2,Calm,Calm,-,N/A,,Clear,0,2013-08-27 03:46:00
11:48 PM,69.8,68.0,94,30.01,0.5,Calm,Calm,-,N/A,Fog,Fog,0,2013-08-27 03:48:00
11:53 PM,71.1,70.0,96,29.99,0.2,Calm,Calm,-,N/A,Fog,Fog,0,2013-08-27 03:53:00